Theta_e
309 311 315 319 319 311 310 311 312 310 309 310 308 310 309 305 305 305 306 305 308 315 322 326 330 331 330 331 332 334 334 334 334 334 333 332 331 331 331 331 330 330 328 327
310 311 312 312 310 311 309 311 311 310 309 309 308 309 308 305 304 305 304 303 302 305 306 312 319 324 327 329 330 332 334 334 334 334 334 334 332 328 328 328 329 329 328 328
311 310 310 311 311 311 309 311 309 312 309 308 308 309 309 308 305 306 304 303 302 304 305 304 308 315 322 325 328 331 333 334 334 333 333 332 330 328 327 328 328 328 328 328
311 310 311 311 313 312 312 307 309 309 308 310 307 310 305 306 307 305 304 303 303 302 303 304 305 308 314 321 326 330 332 333 333 333 333 331 330 329 327 326 327 328 329 329
310 310 312 313 313 311 312 307 309 309 308 307 307 306 305 304 306 306 304 304 303 302 302 303 305 309 310 310 313 319 325 331 332 332 333 332 331 328 325 326 328 329 328 327
308 307 311 313 310 310 307 308 306 306 306 308 307 307 306 304 305 306 308 304 303 302 302 304 307 310 311 312 312 311 310 317 330 332 332 331 331 327 326 326 327 326 326 325
306 307 307 307 309 307 308 309 311 311 310 311 304 304 310 304 302 303 304 305 303 301 304 305 306 309 310 312 313 313 311 309 316 331 331 332 330 328 327 326 325 324 322 319
310 311 306 306 309 309 308 309 310 310 310 308 304 306 306 303 302 301 301 301 301 302 305 305 307 309 310 312 315 312 309 309 311 325 331 332 330 328 325 324 323 321 317 314
309 309 307 306 306 309 307 307 307 307 298 307 305 303 303 304 303 304 305 303 303 304 305 306 306 307 308 313 314 312 313 316 319 325 328 330 327 325 323 322 320 316 313 311
306 309 308 307 307 307 308 306 309 307 308 308 306 305 305 304 306 304 305 305 304 304 304 304 304 306 307 312 314 314 316 318 321 323 326 324 322 323 320 318 315 313 308 303
306 308 309 307 308 308 306 307 306 308 309 309 306 305 302 304 306 305 305 305 305 304 304 303 303 305 306 309 311 313 313 314 315 316 317 318 318 318 316 315 310 304 300 296
307 307 308 308 307 307 307 307 308 311 309 304 307 306 303 302 302 303 305 306 304 304 303 301 302 303 303 305 307 309 309 310 312 313 315 315 315 314 311 305 300 297 296 294
308 308 308 310 308 307 307 306 306 306 307 309 308 309 301 304 304 304 305 305 305 303 301 300 299 300 301 302 303 304 306 308 309 310 311 309 307 304 301 298 295 294 294 293
309 309 309 309 308 307 309 307 305 307 309 307 307 307 305 304 305 306 306 305 305 304 303 301 299 299 300 301 301 302 302 304 304 305 304 302 300 298 296 295 294 293 293 293
308 309 307 307 307 307 308 309 307 307 308 308 309 305 306 304 304 304 305 305 305 305 304 302 301 299 299 299 300 300 301 300 300 299 298 297 296 295 294 293 293 293 292 292
306 305 306 307 307 307 308 308 308 308 308 308 307 306 303 302 303 305 305 306 307 306 305 304 302 300 299 299 298 299 299 298 298 297 295 294 294 293 293 292 292 292 291 291
308 304 303 305 306 307 309 307 307 307 308 308 307 308 302 302 303 304 305 306 307 307 306 305 303 301 300 299 299 297 298 298 296 295 294 293 293 292 292 292 292 291 291 290
308 309 307 305 308 310 308 305 305 306 306 307 307 306 304 303 303 304 304 306 306 306 306 305 304 303 301 300 298 297 297 296 295 294 293 292 292 292 291 291 291 290 290 289
304 306 304 310 302 306 308 306 307 307 309 305 306 305 303 303 304 303 302 304 305 306 306 306 305 304 302 299 298 296 295 294 293 293 292 292 291 291 291 291 290 289 289 289
304 303 307 292 310 311 310 303 302 305 311 310 307 305 303 302 306 309 303 303 304 304 306 306 305 304 301 298 297 295 293 293 291 292 292 291 291 291 291 290 289 289 288 287
305 302 308 292 300 300 300 301 302 309 310 300 304 305 302 304 307 302 302 302 302 303 304 306 305 302 300 296 295 294 292 291 292 292 292 291 291 291 291 289 289 288 286 285
308 308 306 296 297 309 299 300 307 305 298 300 303 304 302 300 300 299 301 301 299 299 301 304 302 300 299 296 295 293 292 292 292 292 291 291 290 289 289 288 287 285 285 284
310 308 308 306 306 302 298 301 299 297 297 298 299 299 302 302 302 300 300 298 297 298 299 301 300 296 295 294 295 293 292 292 291 291 290 290 289 288 287 286 285 284 284 284
305 304 306 307 305 304 299 298 298 298 298 298 298 298 299 300 298 298 297 295 294 293 295 297 296 292 291 292 293 294 291 291 291 288 288 288 287 286 285 284 283 283 284 284
303 304 304 303 304 300 299 298 298 297 297 297 296 297 297 298 297 297 294 290 289 291 293 295 293 291 291 292 292 292 290 290 288 287 287 286 286 285 284 283 283 283 283 283
301 306 308 305 303 303 302 299 298 298 298 296 296 296 295 295 295 295 291 291 291 291 292 292 292 292 291 291 291 289 289 289 288 286 285 285 285 284 282 282 282 282 281 281
Wind_Speed
7 10 19 17 12 5 5 7 5 4 3 5 8 8 9 5 3 7 9 8 9 13 16 25 34 36 35 36 38 38 38 37 34 30 28 27 25 20 19 17 16 15 14 13
4 22 12 8 8 9 8 7 6 1 1 3 3 11 4 6 7 9 12 10 11 6 7 15 24 32 36 37 38 39 41 40 38 37 34 31 27 23 22 20 19 17 16 16
14 4 7 11 7 13 10 11 5 4 4 1 3 7 4 6 4 4 8 7 6 12 11 9 17 22 30 33 36 38 39 40 39 36 33 27 23 21 20 20 19 18 17 16
7 13 8 5 15 14 17 4 6 5 5 5 4 5 6 7 10 7 9 9 11 11 7 7 16 18 22 26 29 32 35 37 36 36 34 31 24 20 18 20 19 16 15 14
10 14 12 17 19 10 11 6 6 4 3 3 2 1 7 1 10 10 11 13 12 10 9 10 15 19 16 17 20 23 26 31 33 35 35 33 27 22 15 15 12 13 11 10
9 3 17 21 11 14 7 4 6 4 2 3 8 7 5 7 8 9 18 11 12 9 8 8 17 16 16 16 16 19 21 24 30 34 36 33 30 24 21 20 16 14 12 10
4 4 2 5 8 4 9 8 2 1 2 9 0 4 13 5 8 8 10 13 12 9 8 8 10 16 16 16 16 18 21 26 27 32 37 37 29 28 23 23 20 19 16 13
13 9 9 6 7 9 7 10 5 7 4 2 2 7 6 9 4 8 8 8 8 11 8 9 12 17 15 14 15 16 19 23 27 31 36 36 28 26 24 22 22 19 16 12
10 10 2 1 3 11 5 7 6 6 2 3 5 7 9 5 9 7 9 6 11 11 11 12 13 17 16 15 15 17 19 22 26 30 32 31 31 27 23 21 21 19 16 14
6 5 2 1 2 1 9 10 3 2 4 4 4 5 5 5 11 12 9 13 9 6 8 7 11 17 15 15 15 16 18 20 23 28 31 33 32 27 24 23 22 21 19 18
5 4 2 4 6 8 3 4 2 3 5 6 1 6 9 14 17 14 11 4 6 8 8 8 11 16 15 15 16 18 19 22 25 29 31 32 30 28 28 27 25 24 23 20
4 5 4 4 0 0 2 6 12 7 9 1 3 7 3 9 9 6 6 8 7 6 7 7 11 16 16 17 18 21 23 25 27 30 32 32 31 31 30 29 27 25 23 20
8 2 4 4 2 1 5 4 4 5 4 8 5 10 2 4 6 5 6 6 8 8 8 7 11 16 21 21 21 21 23 26 28 30 32 33 34 34 33 30 27 24 22 20
7 4 8 12 8 8 5 6 5 6 4 5 10 11 6 6 7 3 4 6 7 9 11 10 7 12 19 24 25 25 25 28 30 32 35 36 35 34 32 28 25 22 19 17
5 6 5 3 4 7 6 10 14 10 19 11 26 13 16 11 7 5 6 6 8 9 12 13 12 13 20 24 26 27 28 31 32 35 36 35 33 31 29 27 24 21 18 16
3 5 5 3 3 3 5 10 13 19 18 21 13 20 8 6 5 5 8 9 11 13 15 15 13 18 21 24 28 32 33 34 34 35 35 34 33 31 29 27 24 21 19 16
11 6 4 8 4 5 3 13 13 14 18 19 18 20 6 6 8 9 9 11 15 17 18 18 20 24 27 30 34 33 36 37 36 36 35 34 32 30 28 25 23 20 18 14
6 10 3 3 3 5 9 6 10 16 13 20 20 3 4 8 9 8 9 14 17 14 15 16 20 26 31 33 34 34 40 41 40 39 38 36 34 31 28 25 22 20 17 14
2 6 3 6 4 5 8 8 7 6 16 14 19 10 9 4 1 8 10 14 16 17 18 27 35 34 31 34 36 37 37 38 39 40 40 37 34 32 29 26 23 20 17 15
3 3 5 3 6 15 19 10 6 8 17 16 11 12 10 8 7 17 11 12 14 14 18 21 27 29 30 34 41 41 39 41 38 43 43 39 35 32 30 26 23 20 16 14
3 3 9 3 3 10 6 4 7 9 13 2 1 9 8 10 12 2 7 4 8 13 16 18 26 31 33 34 41 37 36 38 42 43 41 38 34 30 27 25 22 19 16 12
8 7 4 3 3 15 6 4 17 6 2 2 4 3 3 5 8 7 7 7 7 6 11 25 27 30 35 41 42 34 35 37 42 43 40 37 33 29 26 23 20 17 14 13
7 6 7 9 8 4 5 1 1 2 4 3 4 2 2 3 3 6 6 6 5 7 8 20 22 23 29 36 38 33 34 42 45 43 41 36 32 28 24 22 20 17 15 13
3 2 3 4 3 2 3 1 1 0 4 4 2 1 2 3 6 6 5 5 4 2 5 12 16 17 18 29 33 31 36 43 46 42 41 37 32 27 23 20 17 16 16 14
2 4 3 3 1 3 4 3 2 2 0 1 2 1 1 2 5 4 4 4 3 4 5 13 18 18 20 27 28 30 38 44 39 40 40 36 32 28 24 20 18 17 15 15
3 3 3 3 3 3 2 1 1 1 2 2 2 3 2 1 4 3 5 4 4 7 8 13 15 17 20 26 28 31 37 43 43 38 37 35 31 27 24 22 17 19 15 15
Wind_Direction
192 190 210 208 192 255 200 187 210 228 176 151 209 229 237 200 204 218 227 223 221 223 228 219 217 218 219 220 219 218 213 213 211 206 203 206 212 222 220 225 228 226 230 236
182 220 208 203 173 213 247 203 205 297 36 146 167 244 257 186 220 215 210 218 225 216 217 218 222 225 223 221 220 221 220 216 213 214 213 213 219 224 231 234 235 238 238 241
199 259 149 175 182 217 236 217 204 182 128 36 119 291 226 231 221 223 232 230 231 215 206 209 204 208 215 215 216 218 219 218 215 213 214 213 216 216 224 228 232 233 235 240
233 250 157 166 226 210 239 212 168 148 131 211 155 265 255 228 232 207 235 224 230 212 204 197 200 198 198 206 208 214 217 218 217 213 211 205 204 199 222 228 230 234 236 231
199 192 168 217 216 208 234 164 174 175 167 128 200 180 258 106 241 241 235 230 231 218 201 195 195 200 199 201 199 204 211 216 218 215 213 206 208 211 216 220 209 204 205 212
199 175 171 206 206 214 163 82 47 57 79 259 210 182 244 196 203 228 233 227 224 203 200 191 197 192 201 211 217 212 209 209 213 215 212 209 208 204 192 189 190 181 177 176
162 189 184 142 166 149 178 142 207 228 186 231 228 201 239 227 236 228 226 231 215 182 180 181 187 192 196 207 218 223 220 216 208 211 212 212 211 203 191 182 181 165 163 163
170 209 168 171 205 188 171 187 171 183 209 229 36 232 243 223 258 244 244 242 183 182 185 185 190 197 201 210 218 218 216 217 210 207 209 209 209 192 181 178 177 174 173 166
174 200 71 218 160 156 186 198 180 97 17 61 208 284 300 262 274 255 244 216 204 187 181 184 185 200 197 201 208 210 206 206 203 201 201 195 187 176 173 176 176 172 165 163
198 154 128 162 129 331 188 157 141 49 143 246 264 280 234 267 235 240 225 226 205 177 162 159 178 191 194 196 199 198 196 193 188 186 183 175 171 173 175 176 175 168 164 161
153 115 146 129 210 171 157 171 106 119 157 194 241 259 212 213 219 228 231 197 178 174 170 166 179 191 189 187 191 187 183 176 171 171 167 165 162 163 165 168 167 165 158 155
216 116 143 182 223 28 327 184 193 200 212 210 170 260 241 239 270 269 219 187 181 172 170 157 173 181 184 183 185 185 178 172 168 165 164 160 159 161 162 162 161 160 158 155
186 165 89 36 5 200 210 195 164 120 76 208 165 251 257 266 281 279 226 194 174 154 154 162 171 186 190 188 183 181 179 176 171 167 165 161 160 160 159 160 159 159 159 157
119 143 166 199 210 133 191 185 172 171 183 196 233 242 282 278 254 260 222 173 164 172 177 183 187 189 190 189 183 179 178 179 174 170 166 162 161 160 159 159 159 159 158 157
153 196 169 210 172 175 188 186 182 186 220 194 242 227 236 233 241 232 188 167 166 187 191 192 191 188 187 186 187 184 181 178 174 170 167 164 161 161 161 160 160 161 162 162
182 222 130 175 131 171 181 188 188 213 225 240 258 266 237 219 137 185 199 180 198 203 205 200 194 188 190 190 188 188 185 181 179 176 171 167 165 166 166 164 164 165 166 163
180 135 108 223 141 98 339 207 194 214 216 230 231 243 179 204 209 209 198 197 209 210 203 198 197 193 192 192 191 187 187 185 184 180 176 173 171 169 168 166 167 170 170 165
152 183 124 164 86 182 245 183 193 204 217 229 249 257 192 217 224 224 205 202 220 211 208 208 202 199 197 193 192 188 191 188 186 185 181 179 176 172 171 171 172 175 174 171
351 139 122 157 184 294 274 215 163 173 259 225 238 235 224 179 140 258 211 222 225 209 210 207 202 200 192 188 186 186 186 186 188 188 187 183 180 176 175 176 178 179 178 178
77 57 153 124 168 219 256 177 155 91 273 248 227 214 189 148 239 259 217 222 233 227 219 209 200 192 185 186 185 184 183 186 188 191 190 186 184 182 180 180 181 180 178 178
105 60 190 158 201 276 233 140 128 141 257 263 290 235 165 198 229 338 323 282 244 236 223 209 187 185 190 182 183 184 183 190 191 191 190 187 186 185 183 181 181 179 179 178
157 146 174 85 97 259 150 76 167 219 85 98 65 38 191 277 308 302 300 294 307 247 207 196 182 187 189 189 183 185 189 188 190 191 188 186 185 184 182 183 179 179 181 182
188 188 178 175 208 203 191 91 93 152 137 122 107 79 359 295 291 313 300 309 316 291 229 197 185 177 182 186 188 185 188 188 189 187 185 182 181 182 184 184 183 181 183 183
247 337 163 107 211 181 179 180 137 320 113 130 105 60 44 296 308 295 298 298 301 310 188 180 168 163 172 187 192 193 187 189 185 178 180 179 179 179 183 185 188 191 189 188
192 115 146 309 133 56 356 213 162 165 91 123 101 117 15 312 299 277 285 276 258 208 191 184 180 176 184 191 191 191 189 186 172 174 178 179 181 181 181 187 192 198 206 208
186 180 188 214 130 104 139 132 105 197 332 344 22 7 42 282 296 289 294 279 241 226 206 195 194 192 187 187 188 188 190 184 175 170 175 180 181 183 186 189 195 203 204 205